Regional Weather Roundup
Issued by NWS Cleveland, OH

Home | Current Version | Previous Version | Graphics & Text | Print | Product List | Glossary On
Versions: 1 2 3 4 5 6 7 8 9 10 11 12 13 14 15 16 17 18 19 20 21 22 23 24 25 26 27 28 29 30 31 32 33 34 35 36 37 38 39 40 41 42 43 44 45 46 47 48 49 50
000
ASUS41 KCLE 042000
RWRCLE
OHIO REGIONAL WEATHER ROUNDUP
NATIONAL WEATHER SERVICE WILMINGTON, OH
400 PM EDT FRI SEP 04 2015

NOTE: "FAIR" INDICATES FEW OR NO CLOUDS BELOW 12,000 FEET WITH NO
SIGNIFICANT WEATHER AND/OR OBSTRUCTIONS TO VISIBILITY.

OHZ001>008-015>018-024>027-034-035-043-044-042100-
   NORTHWEST OHIO

CITY           SKY/WX    TMP DP  RH WIND       PRES   REMARKS
DEFIANCE       CLOUDY    76  67  73 S6        30.02R
FINDLAY        CLOUDY    71  63  75 SW10      30.01F
TOLEDO EXPRESS MOSUNNY   83  71  67 W12       30.00S
TOLEDO EXEC    PTSUNNY   82  72  71 N7        30.00S THUNDER
LIMA           PTSUNNY   68  68 100 W5G20     30.03F
$$

OHZ009>014-019>023-028>033-038-089-042100-
   NORTHEAST OHIO

CITY           SKY/WX    TMP DP  RH WIND       PRES   REMARKS
CLE-HOPKINS    PTSUNNY   83  67  58 SW9       30.06S
CLE-LAKEFRONT  PTSUNNY   80  71  74 N9        30.03S
CUY CO. ARPT   NOT AVBL
LORAIN-ELYRIA  PTSUNNY   79  67  66 S9        30.05S
ASHTABULA      PTSUNNY   81  67  62 CALM      30.08F
AKRON-CANTON   CLOUDY    82  64  54 S9        30.07F
WOOSTER        NOT AVBL
MANSFIELD      PTSUNNY   82  69  64 SE8       30.05F
YOUNGSTOWN     CLOUDY    79  68  69 N5        30.08F
$$

OHZ042-051>053-060>062-070>072-077>081-042100-
  SOUTHWEST OHIO

CITY           SKY/WX    TMP DP  RH WIND       PRES   REMARKS
CINC-COVINGTON MOSUNNY   91  66  43 SW6       30.02F HX  93
CINC-LUNKEN    SUNNY     90  67  46 S8        30.00F HX  93
HAMILTON       SUNNY     93  66  40 VRB7      30.01F HX  96
DAYTON         NOT AVBL
WRIGHT-PAT AFB NOT AVBL
DAYTON GENERAL MOSUNNY   92  65  40 W7        30.01F THUNDER HAZE
WILMINGTON     SUNNY     90  67  46 SW7       30.03F HX  93
$$

OHZ036-037-039>041-045>050-054>059-063>069-073>076-082>088-042100-
  CENTRAL AND SOUTHEAST OHIO

CITY           SKY/WX    TMP DP  RH WIND       PRES   REMARKS
COLUMBUS       PTSUNNY   86  70  58 SE6       30.02F HX  90
OSU AIRPORT    MOSUNNY   87  70  56 S8        30.02F HX  92
BOLTON FIELD   MOSUNNY   88  72  58 S6        30.03F HX  94
RICKENBACK AFB NOT AVBL
NEWARK         MOSUNNY   85  69  58 S5        30.04F
MARION         MOSUNNY   83  70  64 S9        30.05S
LANCASTER      PTSUNNY   88  70  55 VRB7      30.04F HX  93
ZANESVILLE     CLOUDY    81  68  64 SE6       30.06F
NEW PHILLY     CLOUDY    79  69  71 W5        30.07F
$$



USA.gov is the U.S. government's official web portal to all federal, state and local government web resources and services.